SV2BBO-2 Thessaloniki GR current weather conditions

sailwx.info

Wind from 198 at 3 knots gusting 4

Air temperature 29.4° C
Dewpoint 4.8° C

Last reported at 2016-Jun-30 05:37 UTC.
Time now 2016-Jun-30 06:56 UTC

Location: N 40°38' E 022°57'.
View on Google Maps.

See reports from other nearby stations

  
Tides and Currents Weather Stations Pressure Air Temp Water Temp Dewpoint Dewpoint Depression Visibility Wind Speed Wind Dir Waves Ship Positions
date/time (UTC)wind fromknots sea level pressurealtimeterstation pressurevisibilityair tempwater tempwave heightnotes
2016-Jun-30 05:37 198 3 gusting 4 29.4
2016-Jun-30 05:27 193 3 gusting 3 29.4
2016-Jun-30 05:17 252 28.9
2016-Jun-30 05:07 233 3 gusting 3 28.3
2016-Jun-30 04:57 224 3 gusting 3 28.3
2016-Jun-30 04:47 239 2 gusting 4 27.8
2016-Jun-30 04:37 305 0 gusting 3 27.2
2016-Jun-30 04:27 058 27.2
2016-Jun-30 04:17 058 27.2
2016-Jun-30 04:07 058 26.7
2016-Jun-30 03:57 058 3 gusting 4 26.7
2016-Jun-30 03:47 096 26.7
2016-Jun-30 03:37 096 26.7
2016-Jun-30 03:27 097 1 gusting 2 26.7
2016-Jun-30 03:17 079 0 gusting 2 26.7
2016-Jun-30 03:07 083 1 gusting 3 26.7
2016-Jun-30 02:57 083 26.7
2016-Jun-30 02:47 092 2 gusting 3 26.7
2016-Jun-30 02:37 089 26.7
2016-Jun-30 02:27 088 2 gusting 3 26.7
2016-Jun-30 02:17 096 2 gusting 3 27.2
2016-Jun-30 02:07 092 0 gusting 2 27.2
2016-Jun-30 01:57 159 27.2
2016-Jun-30 01:47 165 1 gusting 3 27.2
2016-Jun-30 01:37 150 27.2
2016-Jun-30 01:27 280 27.2
2016-Jun-30 01:17 280 0 gusting 2 27.8
2016-Jun-30 01:07 141 27.8
2016-Jun-30 00:57 135 27.8
2016-Jun-30 00:47 135 27.2
2016-Jun-30 00:37 140 27.8
2016-Jun-30 00:27 350 4 gusting 4 27.8
2016-Jun-30 00:17 005 0 gusting 2 27.8
2016-Jun-30 00:07 003 3 gusting 4 27.8
2016-Jun-29 23:57 351 3 gusting 5 27.8
2016-Jun-29 23:47 032 27.8
2016-Jun-29 23:37 352 28.3
2016-Jun-29 23:27 355 4 gusting 5 27.8
2016-Jun-29 23:17 032 5 gusting 6 27.8
2016-Jun-29 23:07 357 3 gusting 5 28.3
2016-Jun-29 22:57 352 4 gusting 4 28.3
2016-Jun-29 22:47 020 6 gusting 6 28.3
2016-Jun-29 22:37 005 6 gusting 7 28.3
2016-Jun-29 22:27 016 6 gusting 6 28.3
2016-Jun-29 22:17 067 3 gusting 6 28.3
2016-Jun-29 22:07 014 5 gusting 5 28.3
2016-Jun-29 21:57 040 6 gusting 6 28.3
2016-Jun-29 21:47 064 4 gusting 5 28.9
2016-Jun-29 21:37 038 1 gusting 3 28.9
2016-Jun-29 21:27 055 4 gusting 4 28.9
2016-Jun-29 21:17 009 5 gusting 4 29.4
2016-Jun-29 21:07 330 2 gusting 3 29.4
2016-Jun-29 20:57 358 4 gusting 5 29.4
2016-Jun-29 20:47 011 5 gusting 5 29.4
2016-Jun-29 20:37 355 4 gusting 5 29.4
2016-Jun-29 20:27 005 6 gusting 11 29.4
2016-Jun-29 20:17 004 7 gusting 7 29.4
2016-Jun-29 20:07 016 6 gusting 9 29.4
2016-Jun-29 19:57 345 6 gusting 8 30.0
2016-Jun-29 19:47 329 6 gusting 5 30.0
2016-Jun-29 19:37 30.6
2016-Jun-29 19:27 352 3 gusting 6 30.6
2016-Jun-29 19:17 356 4 gusting 7 30.6
2016-Jun-29 19:07 339 5 gusting 8 30.6
2016-Jun-29 18:57 324 4 gusting 6 30.6
2016-Jun-29 18:47 323 5 gusting 4 30.6
2016-Jun-29 18:37 333 6 gusting 7 30.6
2016-Jun-29 18:27 31.1
2016-Jun-29 18:17 31.1
2016-Jun-29 18:07 006 6 gusting 7 31.1
2016-Jun-29 17:57 345 6 gusting 6 31.1
2016-Jun-29 17:47 325 5 gusting 7 31.1
2016-Jun-29 17:37 330 6 gusting 6 31.7
2016-Jun-29 17:27 005 6 gusting 5 31.7
2016-Jun-29 17:17 346 4 gusting 5 31.7
2016-Jun-29 17:07 347 6 gusting 10 31.7
2016-Jun-29 16:57 350 6 gusting 8 31.7
2016-Jun-29 16:47 322 7 gusting 8 32.2
2016-Jun-29 16:37 289 6 gusting 5 32.2
2016-Jun-29 16:27 302 6 gusting 10 32.2
2016-Jun-29 16:17 327 6 gusting 7 32.2
2016-Jun-29 16:07 344 6 gusting 7 32.2
2016-Jun-29 15:57 307 6 gusting 13 32.2
2016-Jun-29 15:47 288 6 gusting 13 32.2
2016-Jun-29 15:37 306 8 gusting 11 32.8
2016-Jun-29 15:27 350 5 gusting 6 32.8
2016-Jun-29 15:17 331 7 gusting 10 32.2
2016-Jun-29 15:07 026 6 gusting 7 32.8
2016-Jun-29 14:57 001 5 gusting 6 32.8
2016-Jun-29 14:47 006 7 gusting 12 32.8
2016-Jun-29 14:37 331 5 gusting 5 32.8
2016-Jun-29 14:27 318 6 gusting 13 32.8
2016-Jun-29 14:17 295 5 gusting 6 32.8
2016-Jun-29 14:07 302 8 gusting 13 32.8
2016-Jun-29 13:57 296 6 gusting 10 32.8
2016-Jun-29 13:47 341 6 gusting 8 32.8
2016-Jun-29 13:37 349 7 gusting 8 32.2
2016-Jun-29 13:27 307 6 gusting 6 32.2
2016-Jun-29 13:17 291 7 gusting 10 31.7
2016-Jun-29 13:07 282 4 gusting 6 31.7
2016-Jun-29 12:57 276 8 gusting 7 31.7
2016-Jun-29 12:47 336 5 gusting 9 31.7
2016-Jun-29 12:37 312 6 gusting 6 32.2
2016-Jun-29 12:27 298 5 gusting 7 32.2
2016-Jun-29 12:17 298 8 gusting 7 31.7
2016-Jun-29 12:07 329 4 gusting 7 31.7
2016-Jun-29 11:57 261 6 gusting 10 31.7
2016-Jun-29 11:47 317 5 gusting 5 31.7
2016-Jun-29 11:37 286 3 gusting 5 31.7
2016-Jun-29 11:27 298 5 gusting 8 31.1
2016-Jun-29 11:17 291 7 gusting 12 30.6
2016-Jun-29 11:07 339 6 gusting 5 31.1
2016-Jun-29 10:57 316 6 gusting 9 30.6
2016-Jun-29 10:47 323 5 gusting 4 30.6
2016-Jun-29 10:37 280 4 gusting 6 30.6
2016-Jun-29 10:27 302 8 gusting 9 30.6
2016-Jun-29 10:17 344 5 gusting 6 30.6
2016-Jun-29 10:07 314 5 gusting 6 30.6
2016-Jun-29 09:57 282 3 gusting 5 30.6
2016-Jun-29 09:47 276 4 gusting 6 30.6
2016-Jun-29 09:37 294 5 gusting 7 30.6
2016-Jun-29 09:27 339 6 gusting 7 30.6
2016-Jun-29 09:17 321 5 gusting 6 30.6
2016-Jun-29 09:07 338 3 gusting 5 30.6
2016-Jun-29 08:57 325 4 gusting 5 30.6
2016-Jun-29 08:47 311 3 gusting 6 30.6
2016-Jun-29 08:37 300 6 gusting 7 30.6
2016-Jun-29 08:27 294 7 gusting 8 30.6
2016-Jun-29 08:17 315 6 gusting 10 30.0
2016-Jun-29 08:07 291 5 gusting 6 30.0
2016-Jun-29 07:57 306 5 gusting 7 30.0
2016-Jun-29 07:47 308 3 gusting 4 29.4
2016-Jun-29 07:37 294 4 gusting 5 29.4
2016-Jun-29 07:27 301 3 gusting 6 28.9
2016-Jun-29 07:17 010 4 gusting 5 28.9
2016-Jun-29 07:07 010 5 gusting 5 28.3
2016-Jun-29 06:57 319 5 gusting 6 28.9
2016-Jun-29 06:47 316 4 gusting 6 28.3
2016-Jun-29 06:37 298 4 gusting 6 27.2
2016-Jun-29 06:27 038 6 gusting 10 27.8
2016-Jun-29 06:17 004 5 gusting 7 27.8
2016-Jun-29 06:07 350 6 gusting 6 26.7
2016-Jun-29 05:57 008 8 gusting 13 26.7
2016-Jun-29 05:47 356 4 gusting 6 26.7
2016-Jun-29 05:37 355 4 gusting 5 26.1
2016-Jun-29 05:27 348 6 gusting 7 25.6
2016-Jun-29 05:17 020 6 gusting 5 25.6
2016-Jun-29 05:07 009 5 gusting 6 25.0
2016-Jun-29 04:57 006 5 gusting 7 25.0
2016-Jun-29 04:47 358 6 gusting 6 23.9
2016-Jun-29 04:37 015 7 gusting 10 23.9
2016-Jun-29 04:27 351 6 gusting 7 23.3
2016-Jun-29 04:17 355 5 gusting 9 23.3
2016-Jun-29 04:07 347 5 gusting 7 23.3
2016-Jun-29 03:57 354 7 gusting 9 22.8
2016-Jun-29 03:47 010 7 gusting 7 22.8
2016-Jun-29 03:37 019 6 gusting 7 23.3
2016-Jun-29 03:27 326 3 gusting 5 23.3
2016-Jun-29 03:17 23.3
2016-Jun-29 03:07 033 6 gusting 8 23.3
2016-Jun-29 02:57 014 6 gusting 7 23.3
2016-Jun-29 02:47 341 4 gusting 5 23.3
2016-Jun-29 02:37 320 6 gusting 8 23.3
2016-Jun-29 02:27 342 4 gusting 4 23.3
2016-Jun-29 02:17 355 5 gusting 7 23.3
2016-Jun-29 02:07 353 3 gusting 6 23.3
2016-Jun-29 01:57 350 5 gusting 6 23.3
2016-Jun-29 01:47 339 7 gusting 10 23.3
2016-Jun-29 01:43 358 6 gusting 10 23.3
2016-Jun-29 01:33 338 6 gusting 9 23.3
2016-Jun-29 01:23 348 6 gusting 9 23.3
2016-Jun-29 01:13 003 7 gusting 11 23.3
2016-Jun-29 01:03 23.3
2016-Jun-29 00:53 026 5 gusting 6 23.9
2016-Jun-29 00:43 005 7 gusting 9 23.9
2016-Jun-29 00:33 352 7 gusting 9 23.9
2016-Jun-29 00:23 013 6 gusting 11 24.4
2016-Jun-29 00:13 010 7 gusting 10 24.4
2016-Jun-29 00:03 355 7 gusting 6 24.4
2016-Jun-28 23:53 336 8 gusting 9 24.4
2016-Jun-28 23:43 328 5 gusting 9 24.4
2016-Jun-28 23:33 007 8 gusting 14 24.4
2016-Jun-28 23:22 25.0
2016-Jun-28 23:12 355 5 gusting 12 25.0
2016-Jun-28 23:02 25.0
2016-Jun-28 22:52 007 7 gusting 9 25.6
2016-Jun-28 22:42 018 8 gusting 11 25.6
2016-Jun-28 22:32 356 7 gusting 9 25.6
2016-Jun-28 22:22 26.1
2016-Jun-28 22:12 353 8 gusting 13 26.1
2016-Jun-28 22:02 008 6 gusting 9 26.7
2016-Jun-28 21:52 005 8 gusting 12 26.7
2016-Jun-28 21:42 358 9 gusting 13 26.7
2016-Jun-28 21:32 343 9 gusting 11 26.7
2016-Jun-28 21:22 357 6 gusting 7 27.2
2016-Jun-28 21:12 006 8 gusting 11 27.2
2016-Jun-28 21:02 007 6 gusting 8 27.8
2016-Jun-28 20:52 006 6 gusting 10 27.8
2016-Jun-28 20:42 006 7 gusting 6 27.8
2016-Jun-28 20:32 353 7 gusting 7 28.3
2016-Jun-28 20:22 343 4 gusting 5 28.3
2016-Jun-28 20:12 008 5 gusting 5 28.3
2016-Jun-28 20:02 295 4 gusting 6 29.4
2016-Jun-28 18:07 309 3 gusting 6 29.4
2016-Jun-28 17:57 263 4 gusting 3 29.4
2016-Jun-28 17:47 190 2 gusting 3 29.4
2016-Jun-28 17:37 223 3 gusting 3 30.0
2016-Jun-28 17:27 269 3 gusting 3 30.6
2016-Jun-28 17:17 264 2 gusting 3 30.0
2016-Jun-28 17:07 283 3 gusting 6 30.0
2016-Jun-28 16:57 243 4 gusting 3 30.0
2016-Jun-28 16:47 227 4 gusting 8 30.0
2016-Jun-28 16:37 276 5 gusting 5 30.6
2016-Jun-28 16:27 258 4 gusting 7 31.1
2016-Jun-28 16:17 334 6 gusting 9 31.7
2016-Jun-28 16:07 308 8 gusting 9 31.7
2016-Jun-28 15:57 309 6 gusting 7 31.7
2016-Jun-28 15:47 356 7 gusting 10 31.7
2016-Jun-28 15:37 334 6 gusting 11 31.7
2016-Jun-28 15:27 309 6 gusting 9 31.7
2016-Jun-28 15:17 327 6 gusting 9 31.7
2016-Jun-28 15:07 350 5 gusting 6 31.1
2016-Jun-28 14:57 327 6 gusting 12 31.1
2016-Jun-28 14:47 283 6 gusting 13 31.7
2016-Jun-28 14:37 337 7 gusting 8 31.1
2016-Jun-28 14:27 354 6 gusting 9 31.1
2016-Jun-28 14:17 347 8 gusting 10 31.7
2016-Jun-28 14:07 313 6 gusting 9 31.7
2016-Jun-28 13:57 314 8 gusting 15 31.7
2016-Jun-28 13:47 310 8 gusting 10 32.2
2016-Jun-28 13:37 306 7 gusting 8 32.2
2016-Jun-28 13:27 339 5 gusting 12 32.2
2016-Jun-28 13:17 313 5 gusting 7 32.2
2016-Jun-28 13:07 003 7 gusting 12 32.2
2016-Jun-28 12:57 344 9 gusting 11 31.7
2016-Jun-28 12:47 016 9 gusting 10 31.7
2016-Jun-28 12:37 009 10 gusting 13 31.7
2016-Jun-28 12:27 317 10 gusting 13 32.2
2016-Jun-28 12:17 330 8 gusting 11 31.7
2016-Jun-28 12:07 337 7 gusting 7 31.7
2016-Jun-28 11:57 341 10 gusting 15 31.7
2016-Jun-28 11:47 355 6 gusting 7 31.7
2016-Jun-28 11:37 342 6 gusting 8 31.7
2016-Jun-28 11:27 340 7 gusting 14 31.7
2016-Jun-28 11:17 342 6 gusting 13 31.7
2016-Jun-28 11:07 337 11 gusting 11 31.7
2016-Jun-28 10:57 306 6 gusting 8 31.7
2016-Jun-28 10:47 298 6 gusting 11 31.7
2016-Jun-28 10:37 009 10 gusting 13 31.7
2016-Jun-28 10:27 351 9 gusting 13 31.7
2016-Jun-28 10:17 315 6 gusting 13 31.7
2016-Jun-28 10:07 018 6 gusting 5 31.1
2016-Jun-28 09:57 336 10 gusting 13 31.1
2016-Jun-28 09:47 337 6 gusting 6 31.1
2016-Jun-28 09:37 339 10 gusting 15 31.1
2016-Jun-28 09:27 332 7 gusting 14 31.7
2016-Jun-28 09:17 001 7 gusting 13 31.7
2016-Jun-28 09:07 326 7 gusting 9 31.7
2016-Jun-28 08:57 31.7
2016-Jun-28 08:47 334 6 gusting 7 31.7
2016-Jun-28 08:37 346 6 gusting 15 31.7
2016-Jun-28 08:27 324 6 gusting 11 31.7
2016-Jun-28 08:17 303 4 gusting 8 31.7
2016-Jun-28 08:07 002 4 gusting 6 31.1
2016-Jun-28 07:57 303 6 gusting 5 31.1
2016-Jun-28 07:47 002 4 gusting 7 30.6
2016-Jun-28 07:37 352 6 gusting 6 30.6
2016-Jun-28 07:27 337 6 gusting 7 30.0
2016-Jun-28 07:17 305 4 gusting 5 30.0
2016-Jun-28 07:07 342 6 gusting 8 30.0
2016-Jun-28 06:57 355 8 gusting 7 29.4
2016-Jun-28 06:47 349 6 gusting 7 28.9
2016-Jun-28 06:37 019 6 gusting 9 28.9
2016-Jun-28 06:27 006 5 gusting 6 28.9
2016-Jun-28 06:17 143 1 27.8
2016-Jun-28 06:07 014 1 gusting 6 27.8